Tracking 25995 objects as of 18-Aug-2022
HD Live streaming from Space Station
objects crossing your sky now

SES-22

Track SES-22 now!


NORAD ID: 52933
Int'l Code: 2022-071A
Perigee: 35,784.2 km
Apogee: 35,803.1 km
Inclination: 0.0 °
Period: 1,436.1 minutes
Semi major axis: 42164 km
RCS: Unknown
Launch date: June 29, 2022
Source: SOCIETE EUROPEENNE DES SATELLITES (SES)
Launch site: AIR FORCE EASTERN TEST RANGE (AFETR)
aabbcc
Your satellite tracking list
Your tracking list is empty




NASA's NSSDC Master Catalog

Two Line Element Set (TLE):
1 52933U 22071A   22230.44129337  .00000081  00000-0  00000-0 0  9995
2 52933   0.0456 281.9496 0002244 245.3598 183.3143  1.00272012   521
Source of the keplerian elements: AFSPC